Location: アルンシュタイン
(50.0000°N, 10.0000°E)
Time: 16:59:48
(UTC+02:00)

Vanguard 1 - Pass Details

Date: 17 September 2024
Orbit: 649 x 3825 km, 34.3° (Epoch: 02 October)

Event Time Altitude Azimuth Distance (km) Brightness Sun altitude
Rises 11:13:47 0° 203° (SSW) 7,169 14.8 35.6°
Reaches altitude 10° 11:21:47 10° 186° (S) 5,490 14.6 36.4°
Maximum altitude 11:29:23 16° 156° (SSE) 4,248 14.8 37.1°
Drops below altitude 10° 11:35:13 10° 124° (SE) 4,042 14.3 37.6°
Sets 11:39:32 0° 103° (ESE) 4,503 14.0 37.9°
